(511981) = 2015 KK75

Discovered at Kitt Peak on 2005-02-04 by Spacewatch.

Orbit

Orbit type: Main Belt

Note: WebGL enabled browser required.

epoch2023-02-25.0
epoch JD2460000.5
perihelion date2021-03-10.86417
perihelion JD2459284.36417
argument of perihelion (°)237.18886
ascending node (°)140.04384
inclination (°)8.28208
eccentricity0.2075266
perihelion distance (AU)2.0989268
Tisserand w.r.t. Jupiter3.3
ΔV w.r.t. Earth (km/sec)9.5
semimajor axis (AU)2.6485771
mean anomaly (°)163.74963
mean daily motion (°/day)0.22865720
aphelion distance (AU)3.198
period (years)4.31
P-vector [x]0.94948039
P-vector [y]0.31379966
P-vector [z]0.00409457
Q-vector [x]-0.29988240
Q-vector [y]0.90336979
Q-vector [z]0.30658371
absolute magnitude17.05
phase slope0.15
uncertainty0
referenceMPO 745323
observations used173
oppositions10
arc length (days)7183
first opposition used2003
last opposition used2023
residual rms (arc-secs)0.71
perturbers coarse indicatorM-v
perturbers precise indicator003Ek
first observation date used2003-08-23.0
last observation date used2023-04-23.0
computer nameMPCLINUX
JD of orbit computation2458143.196630
perihelion JD uncertainty (days)2.9856E-05
argument of perihelion uncertainty (°)2.6133E-05
ascending node uncertainty (°)2.5113E-05
inclination uncertainty (°)3.3911E-06
eccentricity uncertainty 3.8449E-08
perihelion distance uncertainty (AU)1.0949E-07
Minimum Orbit Intersection Distances (in AU)
for orbit epoch: 2460000.5, reference: E2023-HH6
Mercury1.75195
Venus1.37609
Earth1.11146
Mars0.7087
Jupiter2.29059
Saturn6.32641
Uranus15.3093
Neptune27.5365

Observations

171 total observations over interval: 2003 08 23.32772 – 2023 04 23.338560
These data are available for download (format description).

Date (UT) J2000 RA J2000 Dec Magn Location Ref
2003 08 23.32772 23 03 34.86 -10 43 18.5 19.2   644 – Palomar Mountain/NEAT MPS 867576
2003 08 23.35523 23 03 33.80 -10 43 34.8 19.1   644 – Palomar Mountain/NEAT MPS 867576
2003 08 23.39178 23 03 32.41 -10 43 56.5 19.8   644 – Palomar Mountain/NEAT MPS 867576
2005 02 04.23523 09 08 21.28 +15 12 21.2 20.5 V 691 – Steward Observatory, Kitt Peak-Spacewatch MPS 752360
2005 02 04.26477 09 08 19.57 +15 12 33.5 20.5 V 691 – Steward Observatory, Kitt Peak-Spacewatch MPS 752360
2005 02 04.29390 09 08 17.94 +15 12 45.1 20.9 V 691 – Steward Observatory, Kitt Peak-Spacewatch MPS 752360
2005 03 04.19882 08 46 47.92 +17 57 28.3 21.0 R G96 – Mt. Lemmon Survey MPS 752360
2005 03 04.20411 08 46 47.76 +17 57 29.5 20.5 R G96 – Mt. Lemmon Survey MPS 752360
2005 03 04.20939 08 46 47.57 +17 57 31.3 20.5 R G96 – Mt. Lemmon Survey MPS 752360
2005 03 04.21468 08 46 47.39 +17 57 32.5 21.2 R G96 – Mt. Lemmon Survey MPS 752360
2012 10 20.544525 04 07 21.506 +06 28 39.10 19.9 w F51 – Pan-STARRS 1, Haleakala MPS 752360
2012 10 20.558961 04 07 21.123 +06 28 34.39 20.1 w F51 – Pan-STARRS 1, Haleakala MPS 752360
2012 10 20.573363 04 07 20.750 +06 28 29.90 20.3 w F51 – Pan-STARRS 1, Haleakala MPS 752360
2012 10 20.587779 04 07 20.381 +06 28 25.25 20.0 w F51 – Pan-STARRS 1, Haleakala MPS 752360
2012 11 11.35558 03 52 41.81 +04 49 41.0 19.5 R 926 – Tenagra II Observatory, Nogales MPS 752360
2012 11 11.37238 03 52 40.87 +04 49 38.2 19.8 R 926 – Tenagra II Observatory, Nogales MPS 752360
2012 11 11.38856 03 52 39.97 +04 49 35.2 19.4 R 926 – Tenagra II Observatory, Nogales MPS 752360
2013 01 07.21584 03 23 34.83 +07 06 27.0 20.3 V G96 – Mt. Lemmon Survey MPS 752360
2013 01 07.21999 03 23 34.87 +07 06 29.2 20.2 V G96 – Mt. Lemmon Survey MPS 752360
2013 01 07.22424 03 23 34.90 +07 06 30.7 20.8 V G96 – Mt. Lemmon Survey MPS 752360
2013 01 07.22840 03 23 34.94 +07 06 31.9 20.5 V G96 – Mt. Lemmon Survey MPS 752360
2015 04 25.51614 15 55 30.561 -08 09 05.39 21.6 w F51 – Pan-STARRS 1, Haleakala MPS 712480
2015 04 25.52818 15 55 30.052 -08 09 02.21 21.5 w F51 – Pan-STARRS 1, Haleakala MPS 712480
2015 04 25.55239 15 55 29.043 -08 08 56.02 21.5 w F51 – Pan-STARRS 1, Haleakala MPS 712480
2015 05 18.32695 15 37 06.66 -06 42 58.4   G96 – Mt. Lemmon Survey MPS 712480
2015 05 18.33203 15 37 06.35 -06 42 57.1 20.6 V G96 – Mt. Lemmon Survey MPS 712480
2015 05 18.33710 15 37 06.16 -06 42 56.9 20.8 V G96 – Mt. Lemmon Survey MPS 712480
2015 05 18.34219 15 37 05.83 -06 42 55.7 21.8 V G96 – Mt. Lemmon Survey MPS 712480
2015 05 21.37693 15 34 25.265 -06 34 17.81 21.5 w F51 – Pan-STARRS 1, Haleakala MPS 608811
2015 05 21.38971 15 34 24.573 -06 34 15.62 21.6 w F51 – Pan-STARRS 1, Haleakala MPS 608811
2015 05 21.40251 15 34 23.875 -06 34 13.86 21.2 w F51 – Pan-STARRS 1, Haleakala MPS 608811
2015 05 21.41532 15 34 23.173 -06 34 11.61 21.3 w F51 – Pan-STARRS 1, Haleakala MPS 608811
2015 05 22.43306 15 33 29.465 -06 31 31.13 21.2 w F51 – Pan-STARRS 1, Haleakala MPS 608811
2015 05 22.44582 15 33 28.774 -06 31 29.11 21.0 w F51 – Pan-STARRS 1, Haleakala MPS 608811
2015 05 22.45855 15 33 28.085 -06 31 27.11 21.2 w F51 – Pan-STARRS 1, Haleakala MPS 608811
2015 06 18.34604 15 13 30.820 -06 06 58.92 21.7 w F51 – Pan-STARRS 1, Haleakala MPS 612739
2015 06 18.35889 15 13 30.394 -06 06 59.51 21.7 w F51 – Pan-STARRS 1, Haleakala MPS 612739
2015 06 18.37169 15 13 29.968 -06 07 00.21 21.5 w F51 – Pan-STARRS 1, Haleakala MPS 612739
2015 06 18.38450 15 13 29.526 -06 07 01.05 21.5 w F51 – Pan-STARRS 1, Haleakala MPS 612739
2015 06 19.33193 15 12 59.983 -06 07 54.03 22.1 w F51 – Pan-STARRS 1, Haleakala MPS 612739
2015 06 19.34497 15 12 59.574 -06 07 54.51 22.0 w F51 – Pan-STARRS 1, Haleakala MPS 612739
2015 06 19.35798 15 12 59.162 -06 07 55.46 21.8 w F51 – Pan-STARRS 1, Haleakala MPS 612739
2015 06 19.37097 15 12 58.729 -06 07 55.98 21.5 w F51 – Pan-STARRS 1, Haleakala MPS 612739
2016 08 03.54507 00 07 15.459 -04 00 21.37 20.2 w F51 – Pan-STARRS 1, Haleakala MPS 752360
2016 08 03.55648 00 07 15.636 -04 00 24.48 20.1 w F51 – Pan-STARRS 1, Haleakala MPS 752360
2016 08 03.56790 00 07 15.814 -04 00 27.63 20.2 w F51 – Pan-STARRS 1, Haleakala MPS 752360
2016 08 03.57933 00 07 15.993 -04 00 30.84 20.4 w F51 – Pan-STARRS 1, Haleakala MPS 752360
2016 08 31.36447 00 05 04.21 -07 28 01.7 19.7 V 703 – Catalina Sky Survey MPS 752360
2016 08 31.37051 00 05 04.01 -07 28 05.0 19.4 V 703 – Catalina Sky Survey MPS 752360
2016 08 31.37654 00 05 03.91 -07 28 08.1 19.4 V 703 – Catalina Sky Survey MPS 752360
2016 08 31.38257 00 05 03.64 -07 28 12.2 19.4 V 703 – Catalina Sky Survey MPS 752360
2016 09 06.29987 00 02 04.68 -08 27 10.5 19.1 V G96 – Mt. Lemmon Survey MPS 752360
2016 09 06.30647 00 02 04.46 -08 27 14.5 19.2 V G96 – Mt. Lemmon Survey MPS 752360
2016 09 06.31302 00 02 04.21 -08 27 18.4 19.2 V G96 – Mt. Lemmon Survey MPS 752360
2016 09 06.31960 00 02 03.98 -08 27 22.5 19.5 V G96 – Mt. Lemmon Survey MPS 752360
2016 09 08.47647 00 00 48.853 -08 49 12.66 19.4 w F51 – Pan-STARRS 1, Haleakala MPS 752360
2016 09 08.48749 00 00 48.422 -08 49 19.33 19.7 w F51 – Pan-STARRS 1, Haleakala MPS 752360
2016 09 08.49850 00 00 47.996 -08 49 26.03 19.7 w F51 – Pan-STARRS 1, Haleakala MPS 752360
2016 09 08.50949 00 00 47.568 -08 49 32.69 19.6 w F51 – Pan-STARRS 1, Haleakala MPS 752360
2016 09 10.29947 23 59 42.33 -09 07 43.4 19.3 V 703 – Catalina Sky Survey MPS 752360
2016 09 10.30248 23 59 42.10 -09 07 44.4 19.3 V 703 – Catalina Sky Survey MPS 752360
2016 09 10.30549 23 59 42.07 -09 07 45.9 19.1 V 703 – Catalina Sky Survey MPS 752360
2016 09 10.30850 23 59 41.91 -09 07 47.7 20.2 V 703 – Catalina Sky Survey MPS 752360
2016 09 25.36302 23 49 30.70 -11 30 33.6 18.9 V G96 – Mt. Lemmon Survey MPS 752360
2016 09 25.36737 23 49 30.51 -11 30 35.5 19.0 V G96 – Mt. Lemmon Survey MPS 752360
2016 09 25.37169 23 49 30.31 -11 30 37.5 19.0 V G96 – Mt. Lemmon Survey MPS 752360
2016 09 25.37605 23 49 30.13 -11 30 40.0 18.9 V G96 – Mt. Lemmon Survey MPS 752360
2016 10 04.18696 23 43 50.64 -12 35 52.1 19.5 G G45 – Space Surveillance Telescope, Atom Site MPS 1611158
2016 10 04.23684 23 43 48.74 -12 36 11.0 19.7 G G45 – Space Surveillance Telescope, Atom Site MPS 1611158
2016 10 04.23959 23 43 48.74 -12 36 11.7 19.4 V 703 – Catalina Sky Survey MPS 752360
2016 10 04.24560 23 43 48.53 -12 36 14.7 19.9 V 703 – Catalina Sky Survey MPS 752360
2016 10 04.25161 23 43 48.26 -12 36 16.2 19.6 V 703 – Catalina Sky Survey MPS 752360
2016 10 04.25762 23 43 48.02 -12 36 18.4 20.4 V 703 – Catalina Sky Survey MPS 752360
2016 10 04.29340 23 43 46.60 -12 36 32.5 20.3 G G45 – Space Surveillance Telescope, Atom Site MPS 1611158
2016 10 04.34623 23 43 44.61 -12 36 51.9 19.8 G G45 – Space Surveillance Telescope, Atom Site MPS 1611158
2018 01 15.46536 09 57 08.340 +11 41 21.54 21.3 w F51 – Pan-STARRS 1, Haleakala MPS 857825
2018 01 15.47768 09 57 07.876 +11 41 25.58 21.6 w F51 – Pan-STARRS 1, Haleakala MPS 857825
2018 01 15.49001 09 57 07.419 +11 41 29.86 21.6 w F51 – Pan-STARRS 1, Haleakala MPS 857825
2018 01 15.50240 09 57 06.964 +11 41 34.04 21.5 w F51 – Pan-STARRS 1, Haleakala MPS 857825
2018 01 16.42036 09 56 33.964 +11 46 46.63 21.3 w F51 – Pan-STARRS 1, Haleakala MPS 857825
2018 01 16.43219 09 56 33.515 +11 46 50.67 21.1 w F51 – Pan-STARRS 1, Haleakala MPS 857825
2018 01 16.44407 09 56 33.057 +11 46 54.83 21.1 w F51 – Pan-STARRS 1, Haleakala MPS 857825
2018 01 16.45592 09 56 32.601 +11 46 58.96 21.1 w F51 – Pan-STARRS 1, Haleakala MPS 857825
2018 01 24.31616 09 51 07.97 +12 35 34.0 20.7 G G96 – Mt. Lemmon Survey MPS 861929
2018 01 24.32132 09 51 07.69 +12 35 36.6 21.2 G G96 – Mt. Lemmon Survey MPS 861929
2018 01 24.32648 09 51 07.44 +12 35 38.7 21.3 G G96 – Mt. Lemmon Survey MPS 861929
2018 02 09.29799 09 37 36.11 +14 27 03.1 20.6 V 691 – Steward Observatory, Kitt Peak-Spacewatch MPS 867576
2018 02 09.31356 09 37 35.24 +14 27 09.6 20.5 V 691 – Steward Observatory, Kitt Peak-Spacewatch MPS 867576
2018 02 09.32910 09 37 34.40 +14 27 16.0 21.0 V 691 – Steward Observatory, Kitt Peak-Spacewatch MPS 867576
2018 02 20.29163 09 27 55.248 +15 42 36.23 21.2 w F51 – Pan-STARRS 1, Haleakala MPS 871593
2018 02 20.30327 09 27 54.640 +15 42 40.95 20.9 w F51 – Pan-STARRS 1, Haleakala MPS 871593
